Time,TemperatureF,DewpointF,PressureIn,WindDirection,WindDirectionDegrees,WindSpeedMPH,WindSpeedGustMPH,Humidity,HourlyPrecipIn,Conditions,Clouds,dailyrainin,SoftwareType,DateUTC
2013-03-24 00:00:00,23.4,19.6,30.12,NE,49,0.0,2.0,85,0.00,,,0.09,meteohub,2013-03-24 04:00:00,
2013-03-24 00:01:00,23.4,19.6,30.12,NE,49,0.0,2.0,85,0.00,,,0.09,meteohub,2013-03-24 04:01:00,
2013-03-24 00:06:00,23.4,19.6,30.11,NE,49,1.0,1.0,85,0.00,,,0.00,meteohub,2013-03-24 04:06:00,
2013-03-24 00:07:00,23.2,19.4,30.11,NE,49,1.0,1.0,85,0.00,,,0.00,meteohub,2013-03-24 04:07:00,
2013-03-24 00:12:00,23.4,19.6,30.10,NE,49,0.0,2.0,85,0.00,,,0.00,meteohub,2013-03-24 04:12:00,
2013-03-24 00:17:00,23.4,19.6,30.10,NE,49,0.0,2.0,85,0.00,,,0.00,meteohub,2013-03-24 04:17:00,
2013-03-24 00:22:00,23.4,19.6,30.10,NE,49,0.0,2.0,85,0.00,,,0.00,meteohub,2013-03-24 04:22:00,
2013-03-24 00:27:00,23.5,19.9,30.09,NE,49,0.0,2.0,86,0.00,,,0.00,meteohub,2013-03-24 04:27:00,
2013-03-24 00:32:00,23.5,19.8,30.09,NE,49,0.0,2.0,85,0.00,,,0.00,meteohub,2013-03-24 04:32:00,
2013-03-24 00:37:00,23.7,19.9,30.09,NE,49,0.0,1.0,85,0.00,,,0.00,meteohub,2013-03-24 04:37:00,
2013-03-24 00:42:00,23.7,19.9,30.09,NE,49,0.0,1.0,85,0.00,,,0.00,meteohub,2013-03-24 04:42:00,
2013-03-24 00:47:00,23.7,19.9,30.09,NE,49,0.0,2.0,85,0.00,,,0.00,meteohub,2013-03-24 04:47:00,
2013-03-24 00:53:00,23.7,19.9,30.09,NE,49,0.0,2.0,85,0.00,,,0.00,meteohub,2013-03-24 04:53:00,
2013-03-24 00:58:00,23.5,19.9,30.09,NE,49,0.0,2.0,86,0.00,,,0.00,meteohub,2013-03-24 04:58:00,
2013-03-24 01:03:00,23.4,19.8,30.08,NE,49,0.0,2.0,86,0.00,,,0.00,meteohub,2013-03-24 05:03:00,
2013-03-24 01:08:00,23.2,19.6,30.08,NE,49,0.0,2.0,86,0.00,,,0.00,meteohub,2013-03-24 05:08:00,
2013-03-24 01:13:00,23.0,19.4,30.07,NE,49,0.0,2.0,86,0.00,,,0.00,meteohub,2013-03-24 05:13:00,
2013-03-24 01:19:00,22.8,19.6,30.06,NE,49,0.0,2.0,87,0.00,,,0.00,meteohub,2013-03-24 05:19:00,
2013-03-24 01:24:00,22.8,19.8,30.05,ENE,74,0.0,2.0,88,0.00,,,0.00,meteohub,2013-03-24 05:24:00,
2013-03-24 01:29:00,23.2,20.5,30.05,ENE,78,1.0,3.0,89,0.00,,,0.00,meteohub,2013-03-24 05:29:00,
2013-03-24 01:34:00,23.5,20.8,30.05,ESE,104,0.0,3.0,89,0.00,,,0.00,meteohub,2013-03-24 05:34:00,
2013-03-24 01:39:00,23.7,20.7,30.04,ESE,117,1.0,4.0,88,0.00,,,0.00,meteohub,2013-03-24 05:39:00,
2013-03-24 01:45:00,23.7,20.7,30.04,ESE,110,0.0,4.0,88,0.00,,,0.00,meteohub,2013-03-24 05:45:00,
2013-03-24 01:50:00,23.7,20.7,30.04,ESE,111,0.0,3.0,88,0.00,,,0.00,meteohub,2013-03-24 05:50:00,
2013-03-24 01:55:00,23.5,20.5,30.05,ESE,111,0.0,2.0,88,0.00,,,0.00,meteohub,2013-03-24 05:55:00,
2013-03-24 02:00:00,23.5,20.8,30.06,ESE,111,1.0,1.0,89,0.00,,,0.00,meteohub,2013-03-24 06:00:00,
2013-03-24 02:05:00,23.7,21.0,30.07,SW,221,2.0,2.0,89,0.00,,,0.00,meteohub,2013-03-24 06:05:00,
2013-03-24 02:10:00,23.9,21.2,30.08,SW,221,0.0,2.0,89,0.00,,,0.00,meteohub,2013-03-24 06:10:00,
2013-03-24 02:15:00,23.5,20.5,30.09,SW,234,2.0,2.0,88,0.00,,,0.00,meteohub,2013-03-24 06:15:00,
2013-03-24 02:21:00,23.0,19.9,30.09,SW,234,0.0,3.0,88,0.00,,,0.00,meteohub,2013-03-24 06:21:00,
2013-03-24 02:26:00,22.6,19.9,30.08,SW,234,0.0,3.0,89,0.00,,,0.00,meteohub,2013-03-24 06:26:00,
2013-03-24 02:31:00,22.5,19.9,30.08,SW,234,0.0,3.0,90,0.00,,,0.00,meteohub,2013-03-24 06:31:00,
2013-03-24 02:37:00,22.6,20.1,30.07,SW,234,0.0,0.0,90,0.00,,,0.00,meteohub,2013-03-24 06:37:00,
2013-03-24 02:42:00,22.6,20.5,30.06,SW,234,0.0,0.0,91,0.00,,,0.00,meteohub,2013-03-24 06:42:00,
2013-03-24 02:47:00,22.6,20.5,30.06,SW,234,0.0,0.0,91,0.00,,,0.00,meteohub,2013-03-24 06:47:00,
2013-03-24 02:52:00,22.5,20.3,30.05,SW,234,0.0,0.0,91,0.00,,,0.00,meteohub,2013-03-24 06:52:00,
2013-03-24 02:57:00,22.1,19.6,30.05,SW,234,0.0,0.0,90,0.00,,,0.00,meteohub,2013-03-24 06:57:00,
2013-03-24 03:02:00,21.7,19.2,30.05,SW,234,0.0,0.0,90,0.00,,,0.00,meteohub,2013-03-24 07:02:00,
2013-03-24 03:07:00,21.6,19.4,30.05,SW,234,0.0,0.0,91,0.00,,,0.00,meteohub,2013-03-24 07:07:00,
2013-03-24 03:12:00,21.0,18.5,30.05,SW,234,0.0,0.0,90,0.00,,,0.00,meteohub,2013-03-24 07:12:00,
2013-03-24 03:17:00,20.8,18.7,30.05,SW,234,0.0,0.0,91,0.00,,,0.00,meteohub,2013-03-24 07:17:00,
2013-03-24 03:22:00,20.8,18.7,30.04,SW,234,0.0,1.0,91,0.00,,,0.00,meteohub,2013-03-24 07:22:00,
2013-03-24 03:27:00,21.0,19.0,30.05,SW,234,0.0,1.0,92,0.00,,,0.00,meteohub,2013-03-24 07:27:00,
2013-03-24 03:33:00,21.0,19.0,30.05,SW,234,0.0,1.0,92,0.00,,,0.00,meteohub,2013-03-24 07:33:00,
2013-03-24 03:38:00,21.2,19.2,30.05,SW,234,0.0,0.0,92,0.00,,,0.00,meteohub,2013-03-24 07:38:00,
2013-03-24 03:43:00,21.4,19.4,30.05,SW,234,0.0,1.0,92,0.00,,,0.00,meteohub,2013-03-24 07:43:00,
2013-03-24 03:48:00,21.4,19.4,30.06,SW,234,0.0,1.0,92,0.00,,,0.00,meteohub,2013-03-24 07:48:00,
2013-03-24 03:53:00,21.4,19.8,30.06,SW,231,0.0,1.0,93,0.00,,,0.00,meteohub,2013-03-24 07:53:00,
2013-03-24 03:59:00,21.6,19.9,30.07,SW,231,0.0,1.0,93,0.00,,,0.00,meteohub,2013-03-24 07:59:00,
2013-03-24 04:04:00,21.6,19.9,30.07,SW,231,0.0,1.0,93,0.00,,,0.00,meteohub,2013-03-24 08:04:00,
2013-03-24 04:09:00,21.6,19.9,30.07,SW,231,0.0,1.0,93,0.00,,,0.00,meteohub,2013-03-24 08:09:00,
2013-03-24 04:14:00,21.6,19.9,30.07,SW,231,0.0,0.0,93,0.00,,,0.00,meteohub,2013-03-24 08:14:00,
2013-03-24 04:20:00,21.4,19.8,30.07,SW,231,0.0,0.0,93,0.00,,,0.00,meteohub,2013-03-24 08:20:00,
2013-03-24 04:25:00,21.4,19.4,30.07,SW,231,0.0,0.0,92,0.00,,,0.00,meteohub,2013-03-24 08:25:00,
2013-03-24 04:30:00,21.2,19.2,30.06,SW,231,0.0,0.0,92,0.00,,,0.00,meteohub,2013-03-24 08:30:00,
2013-03-24 04:35:00,21.4,19.8,30.07,SW,231,0.0,0.0,93,0.00,,,0.00,meteohub,2013-03-24 08:35:00,
2013-03-24 04:40:00,21.6,19.9,30.06,SW,231,0.0,0.0,93,0.00,,,0.00,meteohub,2013-03-24 08:40:00,
2013-03-24 04:46:00,21.9,20.1,30.06,SW,229,0.0,2.0,93,0.00,,,0.00,meteohub,2013-03-24 08:46:00,
2013-03-24 04:52:00,22.1,20.7,30.05,SW,229,0.0,2.0,94,0.00,,,0.00,meteohub,2013-03-24 08:52:00,
2013-03-24 04:57:00,22.5,20.7,30.05,SW,229,0.0,2.0,93,0.00,,,0.00,meteohub,2013-03-24 08:57:00,
2013-03-24 05:02:00,22.5,20.7,30.05,SW,229,0.0,2.0,93,0.00,,,0.00,meteohub,2013-03-24 09:02:00,
2013-03-24 05:07:00,22.5,20.7,30.06,SW,229,0.0,2.0,93,0.00,,,0.00,meteohub,2013-03-24 09:07:00,
2013-03-24 05:12:00,22.5,20.7,30.05,SW,229,2.0,2.0,93,0.00,,,0.00,meteohub,2013-03-24 09:12:00,
2013-03-24 05:17:00,22.5,20.7,30.05,SW,229,2.0,2.0,93,0.00,,,0.00,meteohub,2013-03-24 09:17:00,
2013-03-24 05:22:00,22.5,20.7,30.05,SW,229,0.0,2.0,93,0.00,,,0.00,meteohub,2013-03-24 09:22:00,
2013-03-24 05:27:00,22.5,20.7,30.05,SW,229,0.0,2.0,93,0.00,,,0.00,meteohub,2013-03-24 09:27:00,
2013-03-24 05:32:00,22.5,20.7,30.05,SW,229,0.0,2.0,93,0.00,,,0.00,meteohub,2013-03-24 09:32:00,
2013-03-24 05:37:00,22.5,20.5,30.05,SW,229,0.0,2.0,92,0.00,,,0.00,meteohub,2013-03-24 09:37:00,
2013-03-24 05:41:00,22.5,20.7,30.05,SW,229,0.0,2.0,93,0.00,,,0.00,meteohub,2013-03-24 09:41:00,
2013-03-24 05:47:00,22.3,20.3,30.05,SW,229,0.0,2.0,92,0.00,,,0.00,meteohub,2013-03-24 09:47:00,
2013-03-24 05:57:00,21.9,19.9,30.04,SW,229,0.0,1.0,92,0.00,,,0.00,meteohub,2013-03-24 09:57:00,
2013-03-24 06:02:00,21.9,19.9,30.05,SW,229,0.0,1.0,92,0.00,,,0.00,meteohub,2013-03-24 10:02:00,
2013-03-24 06:07:00,21.9,19.9,30.04,SW,229,0.0,1.0,92,0.00,,,0.00,meteohub,2013-03-24 10:07:00,
2013-03-24 06:12:00,21.9,19.9,30.04,SW,229,0.0,1.0,92,0.00,,,0.00,meteohub,2013-03-24 10:12:00,
2013-03-24 06:17:00,21.9,19.9,30.04,SW,229,0.0,1.0,92,0.00,,,0.00,meteohub,2013-03-24 10:17:00,
2013-03-24 06:22:00,21.9,19.9,30.04,SW,229,0.0,2.0,92,0.00,,,0.00,meteohub,2013-03-24 10:22:00,
2013-03-24 06:28:00,21.7,19.8,30.05,SW,229,0.0,2.0,92,0.00,,,0.00,meteohub,2013-03-24 10:28:00,
2013-03-24 06:33:00,21.7,19.8,30.05,SW,229,0.0,2.0,92,0.00,,,0.00,meteohub,2013-03-24 10:33:00,
2013-03-24 06:38:00,21.6,19.6,30.05,SW,229,0.0,1.0,92,0.00,,,0.00,meteohub,2013-03-24 10:38:00,
2013-03-24 06:43:00,21.4,19.4,30.04,SW,229,0.0,0.0,92,0.00,,,0.00,meteohub,2013-03-24 10:43:00,
2013-03-24 06:48:00,21.2,19.2,30.04,SW,229,0.0,0.0,92,0.00,,,0.00,meteohub,2013-03-24 10:48:00,
2013-03-24 06:54:00,21.0,19.0,30.05,SW,229,0.0,0.0,92,0.00,,,0.00,meteohub,2013-03-24 10:54:00,
2013-03-24 06:59:00,21.0,19.0,30.05,SW,229,0.0,0.0,92,0.00,,,0.00,meteohub,2013-03-24 10:59:00,
2013-03-24 07:04:00,21.0,19.0,30.05,SW,229,0.0,0.0,92,0.00,,,0.00,meteohub,2013-03-24 11:04:00,
2013-03-24 07:09:00,20.8,18.9,30.05,SW,229,0.0,0.0,92,0.00,,,0.00,meteohub,2013-03-24 11:09:00,
2013-03-24 07:15:00,20.8,19.2,30.05,SW,229,0.0,0.0,93,0.00,,,0.00,meteohub,2013-03-24 11:15:00,
2013-03-24 07:20:00,20.8,19.2,30.04,SW,229,0.0,1.0,93,0.00,,,0.00,meteohub,2013-03-24 11:20:00,
2013-03-24 07:25:00,20.8,19.2,30.04,SW,229,0.0,1.0,93,0.00,,,0.00,meteohub,2013-03-24 11:25:00,
2013-03-24 07:31:00,20.8,19.2,30.04,SW,229,0.0,1.0,93,0.00,,,0.00,meteohub,2013-03-24 11:31:00,
2013-03-24 07:36:00,21.0,19.4,30.04,SW,229,0.0,1.0,93,0.00,,,0.00,meteohub,2013-03-24 11:36:00,
2013-03-24 07:41:00,21.0,19.4,30.04,SW,229,0.0,1.0,93,0.00,,,0.00,meteohub,2013-03-24 11:41:00,
2013-03-24 07:46:00,21.0,19.4,30.04,SW,229,0.0,0.0,93,0.00,,,0.00,meteohub,2013-03-24 11:46:00,
2013-03-24 07:52:00,21.0,19.4,30.04,SW,229,0.0,2.0,93,0.00,,,0.00,meteohub,2013-03-24 11:52:00,
2013-03-24 07:57:00,21.2,19.6,30.04,SW,229,0.0,2.0,93,0.00,,,0.00,meteohub,2013-03-24 11:57:00,
2013-03-24 08:02:00,21.4,19.8,30.04,SW,229,0.0,2.0,93,0.00,,,0.00,meteohub,2013-03-24 12:02:00,
2013-03-24 08:07:00,21.6,19.9,30.04,SW,229,0.0,1.0,93,0.00,,,0.00,meteohub,2013-03-24 12:07:00,
2013-03-24 08:12:00,21.7,20.1,30.04,SW,229,0.0,1.0,93,0.00,,,0.00,meteohub,2013-03-24 12:12:00,
2013-03-24 08:17:00,21.9,20.1,30.04,SW,229,0.0,1.0,93,0.00,,,0.00,meteohub,2013-03-24 12:17:00,
2013-03-24 08:22:00,22.1,20.3,30.04,SW,229,0.0,1.0,93,0.00,,,0.00,meteohub,2013-03-24 12:22:00,
2013-03-24 08:27:00,22.3,20.5,30.04,SW,229,1.0,1.0,93,0.00,,,0.00,meteohub,2013-03-24 12:27:00,
2013-03-24 08:32:00,22.5,20.7,30.04,SW,229,0.0,2.0,93,0.00,,,0.00,meteohub,2013-03-24 12:32:00,
2013-03-24 08:37:00,22.8,21.0,30.04,SW,229,1.0,2.0,93,0.00,,,0.00,meteohub,2013-03-24 12:37:00,
2013-03-24 08:42:00,23.0,21.2,30.04,SW,229,0.0,2.0,93,0.00,,,0.00,meteohub,2013-03-24 12:42:00,
2013-03-24 08:47:00,23.4,21.6,30.04,SW,229,0.0,2.0,93,0.00,,,0.00,meteohub,2013-03-24 12:47:00,
2013-03-24 08:52:00,23.7,21.9,30.04,SW,228,0.0,3.0,93,0.00,,,0.00,meteohub,2013-03-24 12:52:00,
2013-03-24 08:58:00,24.1,22.1,30.04,South,176,4.0,4.0,92,0.00,,,0.00,meteohub,2013-03-24 12:58:00,
2013-03-24 09:03:00,24.3,22.3,30.04,SSE,165,2.0,4.0,92,0.00,,,0.00,meteohub,2013-03-24 13:03:00,
2013-03-24 09:08:00,24.4,22.3,30.03,SE,141,2.0,4.0,91,0.00,,,0.00,meteohub,2013-03-24 13:08:00,
2013-03-24 09:13:00,24.6,22.5,30.03,SSE,154,4.0,4.0,91,0.00,,,0.00,meteohub,2013-03-24 13:13:00,
2013-03-24 09:18:00,24.8,22.5,30.03,SSE,151,2.0,5.0,91,0.00,,,0.00,meteohub,2013-03-24 13:18:00,
2013-03-24 09:24:00,25.0,22.5,30.02,SSE,152,3.0,6.0,90,0.00,,,0.00,meteohub,2013-03-24 13:24:00,
2013-03-24 09:29:00,25.2,22.5,30.03,SSE,165,2.0,8.0,89,0.00,,,0.00,meteohub,2013-03-24 13:29:00,
2013-03-24 09:34:00,25.3,22.6,30.03,SSE,154,3.0,8.0,89,0.00,,,0.00,meteohub,2013-03-24 13:34:00,
2013-03-24 09:39:00,25.5,22.8,30.03,SSE,154,1.0,8.0,89,0.00,,,0.00,meteohub,2013-03-24 13:39:00,
2013-03-24 09:44:00,25.9,22.8,30.02,SE,141,4.0,7.0,88,0.00,,,0.00,meteohub,2013-03-24 13:44:00,
2013-03-24 09:49:00,26.1,22.6,30.01,SE,131,4.0,7.0,87,0.00,,,0.00,meteohub,2013-03-24 13:49:00,
2013-03-24 09:55:00,26.4,22.8,30.01,SE,133,3.0,8.0,86,0.00,,,0.00,meteohub,2013-03-24 13:55:00,
2013-03-24 10:00:00,26.6,22.6,30.01,South,180,7.0,8.0,85,0.00,,,0.00,meteohub,2013-03-24 14:00:00,
2013-03-24 10:05:00,26.8,22.6,30.00,SE,130,1.0,11.0,84,0.00,,,0.00,meteohub,2013-03-24 14:05:00,
2013-03-24 10:10:00,27.0,22.8,30.00,SSE,152,9.0,11.0,84,0.00,,,0.00,meteohub,2013-03-24 14:10:00,
2013-03-24 10:15:00,27.0,22.5,29.99,SSE,155,5.0,12.0,83,0.00,,,0.00,meteohub,2013-03-24 14:15:00,
2013-03-24 10:20:00,27.1,22.6,29.99,SSE,153,6.0,12.0,83,0.00,,,0.00,meteohub,2013-03-24 14:20:00,
2013-03-24 10:26:00,27.5,22.8,29.99,SSE,155,2.0,12.0,82,0.00,,,0.00,meteohub,2013-03-24 14:26:00,
2013-03-24 10:31:00,27.9,22.8,29.98,East,95,8.0,9.0,81,0.00,,,0.00,meteohub,2013-03-24 14:31:00,
2013-03-24 10:36:00,28.2,22.8,29.98,East,101,5.0,8.0,80,0.00,,,0.00,meteohub,2013-03-24 14:36:00,
2013-03-24 10:42:00,28.6,22.8,29.97,SSE,165,6.0,12.0,79,0.00,,,0.00,meteohub,2013-03-24 14:42:00,
2013-03-24 10:47:00,28.6,22.6,29.96,SSE,157,6.0,12.0,78,0.00,,,0.00,meteohub,2013-03-24 14:47:00,
2013-03-24 10:52:00,28.8,22.8,29.96,SE,125,4.0,12.0,78,0.00,,,0.00,meteohub,2013-03-24 14:52:00,
2013-03-24 10:57:00,28.9,23.0,29.96,SE,128,4.0,10.0,78,0.00,,,0.00,meteohub,2013-03-24 14:57:00,
2013-03-24 11:02:00,29.1,22.8,29.96,SE,130,8.0,10.0,77,0.00,,,0.00,meteohub,2013-03-24 15:02:00,
2013-03-24 11:07:00,29.1,22.8,29.95,ESE,108,5.0,13.0,77,0.00,,,0.00,meteohub,2013-03-24 15:07:00,
2013-03-24 11:12:00,29.1,22.8,29.96,ESE,102,4.0,13.0,77,0.00,,,0.00,meteohub,2013-03-24 15:12:00,
2013-03-24 11:17:00,29.5,23.2,29.95,SE,139,9.0,13.0,77,0.00,,,0.00,meteohub,2013-03-24 15:17:00,
2013-03-24 11:22:00,29.5,22.8,29.94,SE,125,7.0,10.0,76,0.00,,,0.00,meteohub,2013-03-24 15:22:00,
2013-03-24 11:27:00,29.7,23.0,29.94,SE,135,5.0,12.0,76,0.00,,,0.00,meteohub,2013-03-24 15:27:00,
2013-03-24 11:32:00,30.0,23.4,29.94,SE,136,4.0,12.0,76,0.00,,,0.00,meteohub,2013-03-24 15:32:00,
2013-03-24 11:37:00,30.4,23.2,29.94,SSE,155,9.0,12.0,74,0.00,,,0.00,meteohub,2013-03-24 15:37:00,
2013-03-24 11:43:00,30.4,22.8,29.94,SE,127,9.0,11.0,73,0.00,,,0.00,meteohub,2013-03-24 15:43:00,
2013-03-24 11:48:00,30.0,22.1,29.94,SE,133,5.0,15.0,72,0.00,,,0.00,meteohub,2013-03-24 15:48:00,
2013-03-24 11:53:00,30.0,22.1,29.93,SSE,163,7.0,15.0,72,0.00,,,0.00,meteohub,2013-03-24 15:53:00,
2013-03-24 11:58:00,30.2,21.9,29.93,SE,130,8.0,15.0,71,0.00,,,0.00,meteohub,2013-03-24 15:58:00,
2013-03-24 12:03:00,30.6,22.3,29.93,SE,130,5.0,16.0,71,0.00,,,0.00,meteohub,2013-03-24 16:03:00,
2013-03-24 12:08:00,30.6,22.3,29.93,SSE,165,9.0,16.0,71,0.00,,,0.00,meteohub,2013-03-24 16:08:00,
2013-03-24 12:14:00,30.7,22.1,29.92,SSE,161,4.0,16.0,70,0.00,,,0.00,meteohub,2013-03-24 16:14:00,
2013-03-24 12:19:00,30.9,22.3,29.92,SE,142,5.0,14.0,70,0.00,,,0.00,meteohub,2013-03-24 16:19:00,
2013-03-24 12:24:00,31.3,22.3,29.91,ENE,71,7.0,13.0,69,0.00,,,0.00,meteohub,2013-03-24 16:24:00,
2013-03-24 12:29:00,31.5,22.1,29.91,SE,124,4.0,11.0,68,0.00,,,0.00,meteohub,2013-03-24 16:29:00,
2013-03-24 12:34:00,31.5,21.4,29.89,East,98,8.0,11.0,66,0.00,,,0.00,meteohub,2013-03-24 16:34:00,
2013-03-24 12:39:00,31.6,21.6,29.89,SE,130,10.0,21.0,66,0.00,,,0.00,meteohub,2013-03-24 16:39:00,
2013-03-24 12:44:00,31.8,21.4,29.89,SSE,155,7.0,21.0,65,0.00,,,0.00,meteohub,2013-03-24 16:44:00,
2013-03-24 12:50:00,31.6,21.2,29.89,SE,131,4.0,21.0,65,0.00,,,0.00,meteohub,2013-03-24 16:50:00,
2013-03-24 12:55:00,31.6,21.6,29.88,ESE,109,3.0,13.0,66,0.00,,,0.00,meteohub,2013-03-24 16:55:00,
2013-03-24 13:00:00,31.6,21.2,29.88,SE,137,6.0,13.0,65,0.00,,,0.00,meteohub,2013-03-24 17:00:00,
2013-03-24 13:05:00,31.6,21.2,29.88,ESE,111,4.0,12.0,65,0.00,,,0.00,meteohub,2013-03-24 17:05:00,
2013-03-24 13:10:00,31.6,21.2,29.88,SSW,195,7.0,14.0,65,0.00,,,0.00,meteohub,2013-03-24 17:10:00,
2013-03-24 13:15:00,31.6,21.9,29.87,East,90,11.0,14.0,67,0.00,,,0.00,meteohub,2013-03-24 17:15:00,
2013-03-24 13:20:00,31.6,21.6,29.86,SSE,168,9.0,14.0,66,0.00,,,0.00,meteohub,2013-03-24 17:20:00,
2013-03-24 13:25:00,31.5,21.7,29.85,ESE,109,5.0,15.0,67,0.00,,,0.00,meteohub,2013-03-24 17:25:00,
2013-03-24 13:31:00,31.5,22.1,29.85,SE,137,9.0,15.0,68,0.00,,,0.00,meteohub,2013-03-24 17:31:00,
2013-03-24 13:36:00,31.5,22.1,29.85,SE,128,5.0,15.0,68,0.00,,,0.00,meteohub,2013-03-24 17:36:00,
2013-03-24 13:41:00,31.8,21.4,29.85,East,93,9.0,15.0,65,0.00,,,0.00,meteohub,2013-03-24 17:41:00,
2013-03-24 13:46:00,32.2,21.4,29.85,SE,146,5.0,14.0,64,0.00,,,0.00,meteohub,2013-03-24 17:46:00,
2013-03-24 13:51:00,32.2,21.0,29.85,ESE,121,5.0,14.0,63,0.00,,,0.00,meteohub,2013-03-24 17:51:00,
2013-03-24 13:57:00,32.4,21.6,29.85,East,99,2.0,14.0,64,0.00,,,0.00,meteohub,2013-03-24 17:57:00,
2013-03-24 14:02:00,32.5,21.7,29.85,SE,141,8.0,14.0,64,0.00,,,0.00,meteohub,2013-03-24 18:02:00,
2013-03-24 14:07:00,32.7,21.9,29.85,East,96,6.0,13.0,64,0.00,,,0.00,meteohub,2013-03-24 18:07:00,
2013-03-24 14:13:00,32.9,21.4,29.85,ENE,74,9.0,12.0,62,0.00,,,0.00,meteohub,2013-03-24 18:13:00,
2013-03-24 14:18:00,32.9,21.4,29.85,East,96,3.0,13.0,62,0.00,,,0.00,meteohub,2013-03-24 18:18:00,
2013-03-24 14:23:00,33.1,21.6,29.84,ESE,120,7.0,13.0,62,0.00,,,0.00,meteohub,2013-03-24 18:23:00,
2013-03-24 14:28:00,33.1,21.9,29.84,ESE,115,3.0,13.0,63,0.00,,,0.00,meteohub,2013-03-24 18:28:00,
2013-03-24 14:33:00,32.7,21.9,29.85,ESE,105,3.0,11.0,64,0.00,,,0.00,meteohub,2013-03-24 18:33:00,
2013-03-24 14:39:00,32.5,22.1,29.84,SE,124,2.0,11.0,65,0.00,,,0.00,meteohub,2013-03-24 18:39:00,
2013-03-24 14:44:00,32.5,22.5,29.84,SSE,158,4.0,15.0,66,0.00,,,0.00,meteohub,2013-03-24 18:44:00,
2013-03-24 14:49:00,32.4,22.3,29.84,SE,127,5.0,15.0,66,0.00,,,0.00,meteohub,2013-03-24 18:49:00,
2013-03-24 14:55:00,32.4,21.9,29.83,SE,132,6.0,15.0,65,0.00,,,0.00,meteohub,2013-03-24 18:55:00,
2013-03-24 15:00:00,32.4,21.9,29.83,East,100,5.0,15.0,65,0.00,,,0.00,meteohub,2013-03-24 19:00:00,
2013-03-24 15:05:00,32.2,21.4,29.82,East,101,1.0,11.0,64,0.00,,,0.00,meteohub,2013-03-24 19:05:00,
2013-03-24 15:10:00,32.2,21.4,29.81,ESE,113,5.0,11.0,64,0.00,,,0.00,meteohub,2013-03-24 19:10:00,
2013-03-24 15:16:00,32.2,21.0,29.81,ESE,102,7.0,11.0,63,0.00,,,0.00,meteohub,2013-03-24 19:16:00,
2013-03-24 15:21:00,31.8,20.7,29.82,SSE,152,7.0,11.0,63,0.00,,,0.00,meteohub,2013-03-24 19:21:00,
2013-03-24 15:26:00,31.8,20.7,29.81,ESE,116,4.0,15.0,63,0.00,,,0.00,meteohub,2013-03-24 19:26:00,
2013-03-24 15:31:00,31.8,20.7,29.81,SE,127,8.0,15.0,63,0.00,,,0.00,meteohub,2013-03-24 19:31:00,
2013-03-24 15:37:00,32.0,21.2,29.81,SE,134,8.0,15.0,64,0.00,,,0.00,meteohub,2013-03-24 19:37:00,
2013-03-24 15:42:00,32.0,20.5,29.81,SE,136,5.0,12.0,62,0.00,,,0.00,meteohub,2013-03-24 19:42:00,
2013-03-24 15:47:00,32.2,20.7,29.81,SE,145,3.0,11.0,62,0.00,,,0.00,meteohub,2013-03-24 19:47:00,
2013-03-24 15:52:00,32.2,20.7,29.81,SSE,148,7.0,11.0,62,0.00,,,0.00,meteohub,2013-03-24 19:52:00,
2013-03-24 15:57:00,32.0,20.1,29.81,SE,131,9.0,10.0,61,0.00,,,0.00,meteohub,2013-03-24 19:57:00,
2013-03-24 16:02:00,32.2,20.7,29.81,SSW,202,3.0,12.0,62,0.00,,,0.00,meteohub,2013-03-24 20:02:00,
2013-03-24 16:07:00,32.2,21.0,29.81,SSE,148,7.0,12.0,63,0.00,,,0.00,meteohub,2013-03-24 20:07:00,
2013-03-24 16:13:00,32.4,21.2,29.80,SE,131,2.0,12.0,63,0.00,,,0.00,meteohub,2013-03-24 20:13:00,
2013-03-24 16:18:00,32.2,21.0,29.80,SE,139,4.0,8.0,63,0.00,,,0.00,meteohub,2013-03-24 20:18:00,
2013-03-24 16:23:00,32.0,20.8,29.79,SE,131,2.0,10.0,63,0.00,,,0.00,meteohub,2013-03-24 20:23:00,
2013-03-24 16:28:00,32.2,21.4,29.78,SE,128,5.0,10.0,64,0.00,,,0.00,meteohub,2013-03-24 20:28:00,
2013-03-24 16:33:00,32.2,21.7,29.78,ESE,123,2.0,11.0,65,0.00,,,0.00,meteohub,2013-03-24 20:33:00,
2013-03-24 16:38:00,32.2,21.4,29.78,ESE,123,3.0,11.0,64,0.00,,,0.00,meteohub,2013-03-24 20:38:00,
2013-03-24 16:43:00,31.8,21.0,29.78,SSE,153,4.0,11.0,64,0.00,,,0.00,meteohub,2013-03-24 20:43:00,
2013-03-24 16:49:00,31.8,21.0,29.78,SE,130,3.0,10.0,64,0.00,,,0.00,meteohub,2013-03-24 20:49:00,
2013-03-24 16:54:00,31.8,21.4,29.78,ESE,111,3.0,10.0,65,0.00,,,0.00,meteohub,2013-03-24 20:54:00,
2013-03-24 16:59:00,31.8,21.4,29.77,East,92,3.0,8.0,65,0.00,,,0.00,meteohub,2013-03-24 20:59:00,
2013-03-24 17:04:00,31.6,21.2,29.77,SE,144,9.0,9.0,65,0.00,,,0.00,meteohub,2013-03-24 21:04:00,
2013-03-24 17:09:00,31.5,21.4,29.76,SE,133,4.0,9.0,66,0.00,,,0.00,meteohub,2013-03-24 21:09:00,
2013-03-24 17:14:00,31.5,21.4,29.75,East,86,6.0,9.0,66,0.00,,,0.00,meteohub,2013-03-24 21:14:00,
2013-03-24 17:20:00,31.5,22.1,29.75,ESE,113,5.0,11.0,68,0.00,,,0.00,meteohub,2013-03-24 21:20:00,
2013-03-24 17:25:00,31.3,21.6,29.75,ESE,121,4.0,11.0,67,0.00,,,0.00,meteohub,2013-03-24 21:25:00,
2013-03-24 17:30:00,31.3,21.6,29.74,ESE,121,3.0,11.0,67,0.00,,,0.00,meteohub,2013-03-24 21:30:00,
2013-03-24 17:35:00,31.1,21.4,29.74,SE,141,3.0,11.0,67,0.00,,,0.00,meteohub,2013-03-24 21:35:00,
2013-03-24 17:40:00,31.1,21.7,29.74,East,101,6.0,10.0,68,0.00,,,0.00,meteohub,2013-03-24 21:40:00,
2013-03-24 17:46:00,31.1,21.7,29.73,East,87,8.0,10.0,68,0.00,,,0.00,meteohub,2013-03-24 21:46:00,
2013-03-24 17:51:00,30.9,21.9,29.73,SE,138,3.0,10.0,69,0.00,,,0.00,meteohub,2013-03-24 21:51:00,
2013-03-24 17:56:00,30.7,21.4,29.73,East,87,3.0,10.0,68,0.00,,,0.00,meteohub,2013-03-24 21:56:00,
2013-03-24 18:01:00,30.7,21.7,29.73,SE,142,9.0,10.0,69,0.00,,,0.00,meteohub,2013-03-24 22:01:00,
2013-03-24 18:07:00,30.7,21.7,29.72,SE,133,5.0,10.0,69,0.00,,,0.00,meteohub,2013-03-24 22:07:00,
2013-03-24 18:12:00,30.7,22.1,29.72,South,169,9.0,11.0,70,0.00,,,0.00,meteohub,2013-03-24 22:12:00,
2013-03-24 18:17:00,30.7,22.1,29.71,SE,143,5.0,11.0,70,0.00,,,0.00,meteohub,2013-03-24 22:17:00,
2013-03-24 18:22:00,30.6,22.3,29.71,ESE,121,5.0,11.0,71,0.00,,,0.00,meteohub,2013-03-24 22:22:00,
2013-03-24 18:27:00,30.6,22.3,29.71,ESE,119,2.0,14.0,71,0.00,,,0.00,meteohub,2013-03-24 22:27:00,
2013-03-24 18:33:00,30.6,22.3,29.71,SE,133,3.0,14.0,71,0.00,,,0.00,meteohub,2013-03-24 22:33:00,
2013-03-24 18:38:00,30.6,22.6,29.70,ESE,108,2.0,14.0,72,0.00,,,0.00,meteohub,2013-03-24 22:38:00,
2013-03-24 18:43:00,30.6,22.6,29.70,SE,131,7.0,12.0,72,0.00,,,0.00,meteohub,2013-03-24 22:43:00,
2013-03-24 18:48:00,30.6,22.6,29.69,ESE,109,5.0,13.0,72,0.00,,,0.00,meteohub,2013-03-24 22:48:00,
2013-03-24 18:54:00,30.6,22.6,29.70,ESE,114,4.0,13.0,72,0.00,,,0.00,meteohub,2013-03-24 22:54:00,
2013-03-24 18:59:00,30.4,22.5,29.70,East,94,3.0,13.0,72,0.00,,,0.00,meteohub,2013-03-24 22:59:00,
2013-03-24 19:04:00,30.4,22.8,29.70,SE,144,5.0,10.0,73,0.00,,,0.00,meteohub,2013-03-24 23:04:00,
2013-03-24 19:09:00,30.4,22.8,29.70,SE,137,2.0,13.0,73,0.00,,,0.00,meteohub,2013-03-24 23:09:00,
2013-03-24 19:14:00,30.2,23.0,29.70,East,94,7.0,14.0,74,0.00,,,0.00,meteohub,2013-03-24 23:14:00,
2013-03-24 19:19:00,30.2,23.0,29.70,East,95,11.0,14.0,74,0.00,,,0.00,meteohub,2013-03-24 23:19:00,
2013-03-24 19:24:00,30.2,23.0,29.70,ESE,109,5.0,14.0,74,0.00,,,0.00,meteohub,2013-03-24 23:24:00,
2013-03-24 19:29:00,30.2,23.2,29.70,East,91,2.0,13.0,75,0.00,,,0.00,meteohub,2013-03-24 23:29:00,
2013-03-24 19:34:00,30.2,23.2,29.70,ESE,120,8.0,13.0,75,0.00,,,0.00,meteohub,2013-03-24 23:34:00,
2013-03-24 19:40:00,30.0,23.0,29.70,SE,134,4.0,10.0,75,0.00,,,0.00,meteohub,2013-03-24 23:40:00,
2013-03-24 19:45:00,30.2,23.2,29.70,East,84,6.0,10.0,75,0.00,,,0.00,meteohub,2013-03-24 23:45:00,
2013-03-24 19:50:00,30.0,23.4,29.70,SE,136,4.0,9.0,76,0.00,,,0.00,meteohub,2013-03-24 23:50:00,
2013-03-24 19:55:00,30.0,23.4,29.70,ESE,107,4.0,9.0,76,0.00,,,0.00,meteohub,2013-03-24 23:55:00,
2013-03-24 20:00:00,30.0,23.4,29.70,ENE,69,5.0,9.0,76,0.00,,,0.00,meteohub,2013-03-25 00:00:00,
2013-03-24 20:06:00,30.0,23.4,29.70,East,81,6.0,12.0,76,0.00,,,0.00,meteohub,2013-03-25 00:06:00,
2013-03-24 20:11:00,30.0,23.7,29.70,SE,130,4.0,12.0,77,0.00,,,0.00,meteohub,2013-03-25 00:11:00,
2013-03-24 20:16:00,30.0,23.7,29.70,ESE,115,7.0,12.0,77,0.00,,,0.00,meteohub,2013-03-25 00:16:00,
2013-03-24 20:21:00,30.0,23.7,29.70,ESE,102,7.0,11.0,77,0.00,,,0.00,meteohub,2013-03-25 00:21:00,
2013-03-24 20:27:00,30.0,23.7,29.69,ESE,112,2.0,10.0,77,0.00,,,0.00,meteohub,2013-03-25 00:27:00,
2013-03-24 20:32:00,30.0,24.1,29.69,SE,130,5.0,11.0,78,0.00,,,0.00,meteohub,2013-03-25 00:32:00,
2013-03-24 20:37:00,30.0,24.1,29.69,SE,144,4.0,13.0,78,0.00,,,0.00,meteohub,2013-03-25 00:37:00,
2013-03-24 20:42:00,30.0,24.1,29.69,East,90,6.0,13.0,78,0.00,,,0.00,meteohub,2013-03-25 00:42:00,
2013-03-24 20:47:00,30.0,24.1,29.69,SE,125,7.0,13.0,78,0.00,,,0.00,meteohub,2013-03-25 00:47:00,
2013-03-24 20:52:00,30.0,24.1,29.68,ESE,103,4.0,11.0,78,0.00,,,0.00,meteohub,2013-03-25 00:52:00,
2013-03-24 20:57:00,30.0,24.1,29.68,SE,146,3.0,11.0,78,0.00,,,0.00,meteohub,2013-03-25 00:57:00,
2013-03-24 21:02:00,30.0,24.1,29.68,SE,134,4.0,11.0,78,0.00,,,0.00,meteohub,2013-03-25 01:02:00,
2013-03-24 21:07:00,30.0,24.1,29.68,East,91,6.0,14.0,78,0.00,,,0.00,meteohub,2013-03-25 01:07:00,
2013-03-24 21:13:00,30.0,24.1,29.68,East,101,7.0,14.0,78,0.00,,,0.00,meteohub,2013-03-25 01:13:00,
2013-03-24 21:18:00,30.0,24.1,29.68,SSE,150,2.0,13.0,78,0.00,,,0.00,meteohub,2013-03-25 01:18:00,
2013-03-24 21:23:00,30.0,24.1,29.68,SSE,148,8.0,13.0,78,0.00,,,0.00,meteohub,2013-03-25 01:23:00,
2013-03-24 21:28:00,30.2,24.3,29.68,SSE,148,5.0,11.0,78,0.00,,,0.00,meteohub,2013-03-25 01:28:00,
2013-03-24 21:33:00,30.2,24.3,29.68,SSE,168,2.0,11.0,78,0.00,,,0.00,meteohub,2013-03-25 01:33:00,
2013-03-24 21:38:00,30.2,24.3,29.68,SE,130,6.0,11.0,78,0.00,,,0.00,meteohub,2013-03-25 01:38:00,
2013-03-24 21:43:00,30.4,24.3,29.68,SE,140,3.0,12.0,78,0.00,,,0.00,meteohub,2013-03-25 01:43:00,
2013-03-24 21:49:00,30.4,24.3,29.67,ESE,109,7.0,12.0,78,0.00,,,0.00,meteohub,2013-03-25 01:49:00,
2013-03-24 21:54:00,30.4,24.3,29.67,ESE,119,2.0,12.0,78,0.00,,,0.00,meteohub,2013-03-25 01:54:00,
2013-03-24 21:59:00,30.4,24.3,29.67,ESE,123,7.0,11.0,78,0.00,,,0.00,meteohub,2013-03-25 01:59:00,
2013-03-24 22:04:00,30.4,24.3,29.66,ESE,123,5.0,11.0,78,0.00,,,0.00,meteohub,2013-03-25 02:04:00,
2013-03-24 22:09:00,30.4,24.3,29.66,SE,136,7.0,11.0,78,0.00,,,0.00,meteohub,2013-03-25 02:09:00,
2013-03-24 22:15:00,30.4,24.6,29.66,ESE,105,5.0,11.0,79,0.00,,,0.00,meteohub,2013-03-25 02:15:00,
2013-03-24 22:20:00,30.4,24.6,29.66,East,96,5.0,11.0,79,0.00,,,0.00,meteohub,2013-03-25 02:20:00,
2013-03-24 22:25:00,30.4,24.6,29.66,ENE,75,3.0,11.0,79,0.00,,,0.00,meteohub,2013-03-25 02:25:00,
2013-03-24 22:30:00,30.2,24.4,29.65,SE,141,6.0,10.0,79,0.00,,,0.00,meteohub,2013-03-25 02:30:00,
2013-03-24 22:35:00,30.0,24.3,29.65,ESE,123,3.0,11.0,79,0.00,,,0.00,meteohub,2013-03-25 02:35:00,
2013-03-24 22:40:00,30.0,24.3,29.65,East,96,3.0,12.0,79,0.00,,,0.00,meteohub,2013-03-25 02:40:00,
2013-03-24 22:45:00,30.0,24.3,29.65,SE,124,5.0,12.0,79,0.00,,,0.00,meteohub,2013-03-25 02:45:00,
2013-03-24 22:51:00,30.0,24.6,29.65,ESE,120,5.0,12.0,80,0.00,,,0.00,meteohub,2013-03-25 02:51:00,
2013-03-24 22:56:00,29.8,24.4,29.64,ESE,114,4.0,11.0,80,0.00,,,0.00,meteohub,2013-03-25 02:56:00,
2013-03-24 23:01:00,29.8,24.4,29.64,ESE,115,2.0,12.0,80,0.00,,,0.00,meteohub,2013-03-25 03:01:00,
2013-03-24 23:07:00,30.0,24.6,29.64,SE,143,4.0,12.0,80,0.00,,,0.00,meteohub,2013-03-25 03:07:00,
2013-03-24 23:12:00,30.0,24.6,29.63,SSE,165,4.0,12.0,80,0.00,,,0.00,meteohub,2013-03-25 03:12:00,
2013-03-24 23:17:00,30.0,24.6,29.63,SE,133,6.0,9.0,80,0.00,,,0.00,meteohub,2013-03-25 03:17:00,
2013-03-24 23:22:00,30.0,24.6,29.63,East,99,3.0,9.0,80,0.00,,,0.00,meteohub,2013-03-25 03:22:00,
2013-03-24 23:27:00,30.2,24.8,29.62,SE,140,5.0,9.0,80,0.00,,,0.00,meteohub,2013-03-25 03:27:00,
2013-03-24 23:32:00,30.2,24.4,29.62,ESE,115,4.0,10.0,79,0.00,,,0.00,meteohub,2013-03-25 03:32:00,
2013-03-24 23:37:00,30.4,24.6,29.62,SE,146,7.0,10.0,79,0.00,,,0.00,meteohub,2013-03-25 03:37:00,
2013-03-24 23:43:00,30.6,24.4,29.62,East,86,9.0,12.0,78,0.00,,,0.00,meteohub,2013-03-25 03:43:00,
2013-03-24 23:48:00,30.6,24.4,29.62,ESE,107,5.0,12.0,78,0.00,,,0.00,meteohub,2013-03-25 03:48:00,
2013-03-24 23:53:00,30.6,24.3,29.62,ESE,120,2.0,12.0,77,0.00,,,0.00,meteohub,2013-03-25 03:53:00,
2013-03-24 23:58:00,30.6,24.3,29.62,SE,133,6.0,9.0,77,0.00,,,0.00,meteohub,2013-03-25 03:58:00,